CW5404 Weather Reports


time (UTC)temp
C
wind
direction
speed
KPH
gust
KPH
rain 1hr
cm
rain 24hr
cm
rain mn
cm
humidity
%
barometer
mb
20260831084943 13 340 0.0 0.0 0.00 0.00 0.00 79 1013.0
20260831084443 13 340 0.0 0.0 0.00 0.00 0.00 79 1013.0
20260831083943 13 340 0.0 0.0 0.00 0.00 0.00 79 1013.1
20260831083443 13 340 0.0 0.0 0.00 0.00 0.00 79 1013.1
20260831082443 13 340 0.0 0.0 0.00 0.00 0.00 79 1013.2
20260831081943 13 340 0.0 0.0 0.00 0.00 0.00 79 1013.2
20260831081443 13 340 0.0 0.0 0.00 0.00 0.00 79 1013.2
20260831080943 13 340 0.0 0.0 0.00 0.00 0.00 78 1013.3
20260831080443 13 340 0.0 0.0 0.00 0.00 0.00 78 1013.3
20260831075943 14 340 0.0 0.0 0.00 0.00 0.00 78 1013.3
20260831075442 14 340 0.0 0.0 0.00 0.00 0.00 78 1013.4
20260831074943 14 340 0.0 0.0 0.00 0.00 0.00 77 1013.4
20260831074443 14 340 0.0 0.0 0.00 0.00 0.00 77 1013.4
20260831073942 14 340 0.0 0.0 0.00 0.00 0.00 76 1013.6
20260831073442 14 340 0.0 0.0 0.00 0.00 0.00 76 1013.6
20260831072942 15 340 0.0 0.0 0.00 0.00 0.00 76 1013.6
20260831072442 15 340 0.0 0.0 0.00 0.00 0.00 76 1013.6
20260831071443 15 340 0.0 0.0 0.00 0.00 0.00 75 1013.6
20260831071012 15 340 0.0 0.0 0.00 0.00 0.00 75 1013.7
20260831070012 15 340 0.0 0.0 0.00 0.00 0.00 75 1013.7
20260831065442 15 340 0.0 0.0 0.00 0.00 0.00 74 1013.8
20260831064942 15 340 0.0 0.0 0.00 0.00 0.00 73 1013.9
20260831064442 15 340 0.0 0.0 0.00 0.00 0.00 72 1013.9
20260831063943 15 340 0.0 0.0 0.00 0.00 0.00 72 1014.0
20260831063442 15 340 0.0 0.0 0.00 0.00 0.00 72 1014.0
20260831063012 15 340 0.0 0.0 0.00 0.00 0.00 72 1014.0
20260831062442 16 340 0.0 0.0 0.00 0.00 0.00 72 1014.1
20260831062012 16 340 0.0 0.0 0.00 0.00 0.00 72 1014.1
20260831060942 16 340 0.0 0.0 0.00 0.00 0.00 71 1014.2
20260831060012 16 340 0.0 0.0 0.00 0.00 0.00 70 1014.2
20260831055442 16 340 0.0 0.0 0.00 0.00 0.00 70 1014.3
20260831055012 16 340 0.0 0.0 0.00 0.00 0.00 70 1014.3
20260831053942 16 342 0.0 3.2 0.00 0.00 0.00 69 1014.4
20260831053442 16 342 0.0 3.2 0.00 0.00 0.00 69 1014.4
20260831052942 17 325 0.0 3.2 0.00 0.00 0.00 68 1014.4
20260831051512 17 92 0.0 0.0 0.00 0.00 0.00 67 1014.5
20260831050942 17 92 0.0 0.0 0.00 0.00 0.00 67 1014.7
20260831050511 17 92 0.0 1.6 0.00 0.00 0.00 66 1014.7
20260831045511 17 44 0.0 3.2 0.00 0.00 0.00 66 1014.7
20260831045011 17 327 0.0 3.2 0.00 0.00 0.00 66 1014.7
20260831044441 17 117 0.0 0.0 0.00 0.00 0.00 66 1014.7
20260831043442 17 136 0.0 0.0 0.00 0.00 0.00 65 1014.8
20260831043011 17 136 0.0 3.2 0.00 0.00 0.00 65 1014.8
20260831042511 18 136 0.0 3.2 0.00 0.00 0.00 65 1014.7
20260831041941 18 136 3.2 3.2 0.00 0.00 0.00 64 1014.7
20260831041511 18 235 0.0 1.6 0.00 0.00 0.00 63 1014.7
20260831041012 18 235 0.0 1.6 0.00 0.00 0.00 63 1014.7
20260831040441 18 219 0.0 0.0 0.00 0.00 0.00 62 1014.7
20260831035942 18 219 0.0 1.6 0.00 0.00 0.00 62 1014.7
20260831035441 18 219 0.0 1.6 0.00 0.00 0.00 61 1014.5
20260831034942 18 218 1.6 1.6 0.00 0.00 0.00 61 1014.5
20260831034442 19 30 0.0 0.0 0.00 0.00 0.00 60 1014.6
20260831034011 19 30 0.0 0.0 0.00 0.00 0.00 59 1014.5
20260831033011 20 30 0.0 0.0 0.00 0.00 0.00 58 1014.5
20260831032441 20 31 0.0 3.2 0.00 0.00 0.00 57 1014.5
20260831031941 20 24 0.0 4.8 0.00 0.00 0.00 56 1014.5
20260831031511 20 21 0.0 4.8 0.00 0.00 0.00 55 1014.5
20260831030011 21 35 1.6 9.7 0.00 0.00 0.00 53 1014.4
20260831025510 21 55 1.6 8.0 0.00 0.00 0.00 52 1014.3
20260831024940 21 104 3.2 8.0 0.00 0.00 0.00 52 1014.3
20260831024441 21 32 8.0 8.0 0.00 0.00 0.00 51 1014.3
20260831024010 22 25 6.4 6.4 0.00 0.00 0.00 51 1014.2
20260831023510 22 30 3.2 4.8 0.00 0.00 0.00 50 1014.2
20260831022941 22 60 0.0 8.0 0.00 0.00 0.00 49 1014.2
20260831022510 22 44 4.8 11.3 0.00 0.00 0.00 49 1014.3
20260831022010 22 61 1.6 11.3 0.00 0.00 0.00 49 1014.3
20260831021510 22 46 6.4 9.7 0.00 0.00 0.00 48 1014.3
20260831021011 22 24 1.6 8.0 0.00 0.00 0.00 48 1014.5
20260831020510 22 46 1.6 9.7 0.00 0.00 0.00 47 1014.5
20260831015440 22 95 3.2 9.7 0.00 0.00 0.00 47 1014.5
20260831015010 22 38 1.6 9.7 0.00 0.00 0.00 47 1014.5
20260831014440 22 350 4.8 9.7 0.00 0.00 0.00 46 1014.5
20260831014010 22 71 0.0 11.3 0.00 0.00 0.00 46 1014.6
20260831013510 23 35 3.2 12.9 0.00 0.00 0.00 45 1014.6
20260831013010 23 58 4.8 12.9 0.00 0.00 0.00 45 1014.6
20260831012440 23 32 8.0 11.3 0.00 0.00 0.00 45 1014.6
20260831011940 23 61 4.8 11.3 0.00 0.00 0.00 45 1014.6
20260831005940 23 33 4.8 9.7 0.00 0.00 0.00 43 1014.7
20260831005510 23 62 1.6 9.7 0.00 0.00 0.00 43 1015.0
20260831005010 23 42 6.4 9.7 0.00 0.00 0.00 42 1015.0
20260831004440 23 275 0.0 4.8 0.00 0.00 0.00 43 1015.0
20260831004010 23 17 1.6 9.7 0.00 0.00 0.00 44 1015.1
20260831003440 23 53 1.6 9.7 0.00 0.00 0.00 42 1015.1
20260831003009 23 49 4.8 11.3 0.00 0.00 0.00 42 1015.1
20260831002440 23 120 3.2 11.3 0.00 0.00 0.00 42 1015.2
20260831001939 23 122 1.6 9.7 0.00 0.00 0.00 42 1015.2
20260831001510 23 26 6.4 9.7 0.00 0.00 0.00 41 1015.2
20260831001009 24 61 1.6 9.7 0.00 0.00 0.00 41 1015.5
20260831000509 24 321 1.6 8.0 0.00 0.00 0.00 41 1015.5
20260830235509 24 28 0.0 8.0 0.00 0.00 0.00 40 1015.6
20260830235010 25 174 1.6 9.7 0.00 0.00 0.00 40 1015.6
20260830234509 25 227 1.6 9.7 0.00 0.00 0.00 39 1015.6
20260830234010 25 31 3.2 11.3 0.00 0.00 0.00 40 1015.8
20260830232509 24 73 1.6 9.7 0.00 0.00 0.00 41 1016.1
20260830231940 24 82 4.8 8.0 0.00 0.00 0.00 40 1016.1
20260830231509 24 338 3.2 11.3 0.00 0.00 0.00 40 1016.1
20260830231009 24 39 6.4 11.3 0.00 0.00 0.00 40 1016.2
20260830230009 23 165 3.2 12.9 0.00 0.00 0.00 41 1016.2
20260830224939 24 80 3.2 12.9 0.00 0.00 0.00 39 1016.4
20260830224509 23 26 4.8 12.9 0.00 0.00 0.00 40 1016.4
20260830223939 24 63 11.3 12.9 0.00 0.00 0.00 39 1016.7
20260830223509 24 31 0.0 9.7 0.00 0.00 0.00 39 1016.7
20260830222439 23 120 6.4 11.3 0.00 0.00 0.00 39 1017.0
20260830222009 23 333 6.4 11.3 0.00 0.00 0.00 40 1017.0
20260830220939 24 122 4.8 11.3 0.00 0.00 0.00 38 1017.2
20260830220509 24 355 6.4 12.9 0.00 0.00 0.00 39 1017.2
20260830215439 23 355 4.8 12.9 0.00 0.00 0.00 41 1017.5
20260830215009 23 38 1.6 9.7 0.00 0.00 0.00 39 1017.5
20260830213009 23 28 8.0 12.9 0.00 0.00 0.00 41 1017.7
20260830211943 23 26 0.0 14.5 0.00 0.00 0.00 41 1017.9
20260830211442 23 333 1.6 12.9 0.00 0.00 0.00 41 1017.9
20260830211012 22 43 4.8 12.9 0.00 0.00 0.00 42 1018.1
20260830210513 22 13 6.4 11.3 0.00 0.00 0.00 41 1018.1
20260830205942 22 217 3.2 11.3 0.00 0.00 0.00 42 1018.1
20260830205512 22 191 1.6 12.9 0.00 0.00 0.00 44 1018.2
20260830204942 22 84 8.0 12.9 0.00 0.00 0.00 44 1018.2
20260830204512 22 5 6.4 11.3 0.00 0.00 0.00 43 1018.2
20260830204012 22 355 3.2 11.3 0.00 0.00 0.00 43 1018.3
20260830202942 22 209 1.6 9.7 0.00 0.00 0.00 43 1018.3
20260830202442 22 153 3.2 9.7 0.00 0.00 0.00 41 1018.7
20260830201442 22 50 1.6 11.3 0.00 0.00 0.00 44 1018.7
20260830200512 21 10 6.4 14.5 0.00 0.00 0.00 45 1018.8
20260830200012 21 75 4.8 12.9 0.00 0.00 0.00 45 1018.8
20260830195512 21 76 6.4 11.3 0.00 0.00 0.00 44 1018.9
20260830194942 21 42 3.2 9.7 0.00 0.00 0.00 45 1018.9
20260830194442 21 253 1.6 11.3 0.00 0.00 0.00 45 1018.9
20260830194012 21 140 1.6 11.3 0.00 0.00 0.00 45 1019.2
20260830192942 21 88 1.6 11.3 0.00 0.00 0.00 46 1019.2
20260830192442 21 340 3.2 12.9 0.00 0.00 0.00 47 1019.4
20260830192012 21 64 4.8 12.9 0.00 0.00 0.00 47 1019.4
20260830191442 20 76 1.6 8.0 0.00 0.00 0.00 49 1019.4
20260830190942 20 18 4.8 12.9 0.00 0.00 0.00 51 1019.5
20260830190442 20 61 3.2 12.9 0.00 0.00 0.00 50 1019.5
20260830185942 20 53 6.4 9.7 0.00 0.00 0.00 50 1019.5
20260830185442 20 26 4.8 11.3 0.00 0.00 0.00 50 1019.8
20260830184942 20 99 4.8 11.3 0.00 0.00 0.00 51 1019.8
20260830184442 20 40 9.7 9.7 0.00 0.00 0.00 50 1019.8
20260830183942 20 342 1.6 8.0 0.00 0.00 0.00 51 1019.8
20260830183442 20 165 1.6 8.0 0.00 0.00 0.00 52 1019.8
20260830182942 20 84 4.8 9.7 0.00 0.00 0.00 53 1019.8
20260830182442 20 126 4.8 11.3 0.00 0.00 0.00 53 1019.9
20260830180942 19 61 4.8 11.3 0.00 0.00 0.00 52 1020.0
20260830180442 19 86 0.0 11.3 0.00 0.00 0.00 52 1020.0
20260830175942 19 107 1.6 11.3 0.00 0.00 0.00 55 1020.0
20260830175442 18 58 3.2 11.3 0.00 0.00 0.00 55 1020.0
20260830175012 18 76 4.8 9.7 0.00 0.00 0.00 56 1020.0
20260830174442 18 64 4.8 14.5 0.00 0.00 0.00 57 1020.0
20260830173942 18 5 9.7 14.5 0.00 0.00 0.00 58 1020.2
20260830173442 18 84 3.2 14.5 0.00 0.00 0.00 57 1020.2
20260830172442 18 94 11.3 11.3 0.00 0.00 0.00 62 1020.2
20260830171942 18 34 4.8 11.3 0.00 0.00 0.00 62 1020.2
20260830170942 18 73 6.4 12.9 0.00 0.00 0.00 62 1020.2
20260830170442 18 84 4.8 6.4 0.00 0.00 0.00 63 1020.2
20260830165942 18 283 4.8 6.4 0.00 0.00 0.00 63 1020.2
20260830165442 17 34 0.0 6.4 0.00 0.00 0.00 65 1020.3
20260830165012 17 61 1.6 11.3 0.00 0.00 0.00 65 1020.3
20260830164442 17 44 6.4 11.3 0.00 0.00 0.00 63 1020.3
20260830163942 17 76 1.6 6.4 0.00 0.00 0.00 64 1020.4
20260830163442 17 222 1.6 3.2 0.00 0.00 0.00 65 1020.4
20260830162942 17 38 0.0 0.0 0.00 0.00 0.00 67 1020.4
20260830162442 16 81 0.0 0.0 0.00 0.00 0.00 67 1020.4
20260830161442 16 102 0.0 0.0 0.00 0.00 0.00 70 1020.4
20260830161012 15 109 0.0 0.0 0.00 0.00 0.00 71 1020.4
20260830155512 14 147 0.0 0.0 0.00 0.00 0.00 77 1020.4
20260830095450 9 128 0.0 0.0 0.00 0.00 0.00 85 1019.9
20260830094950 9 128 0.0 0.0 0.00 0.00 0.00 85 1019.9
20260830094450 9 128 0.0 0.0 0.00 0.00 0.00 85 1019.9
20260830093950 9 128 0.0 0.0 0.00 0.00 0.00 84 1019.8
20260830092950 10 128 0.0 0.0 0.00 0.00 0.00 83 1019.8
20260830092450 10 128 0.0 0.0 0.00 0.00 0.00 83 1019.8
20260830091950 10 128 0.0 0.0 0.00 0.00 0.00 82 1019.8
20260830091450 10 128 0.0 0.0 0.00 0.00 0.00 82 1019.8
20260830090950 10 128 0.0 0.0 0.00 0.00 0.00 82 1019.8
20260830090450 10 128 0.0 0.0 0.00 0.00 0.00 82 1019.8
20260830085950 10 128 0.0 0.0 0.00 0.00 0.00 81 1019.8
20260830085450 10 128 0.0 0.0 0.00 0.00 0.00 81 1019.8